| time (UTC) | temp F | wind direction | speed knots | gust knots | rain 1hr in | rain 24hr in | rain mn in | humidity % | barometer mb |
| 20260904004503 | 66 | 180 | 9.6 | 9.6 | 0.00 | 1.96 | 0.00 | 88 | 1011.5 |
| 20260904003603 | 66 | 180 | 9.6 | 9.6 | 7.75 | 1.96 | 0.00 | 88 | 1011.5 |
| 20260904002703 | 66 | 180 | 9.6 | 9.6 | 7.75 | 1.96 | 0.00 | 88 | 1011.5 |
| 20260904001803 | 66 | 180 | 9.6 | 9.6 | 7.75 | 1.96 | 0.00 | 88 | 1011.5 |
| 20260904000903 | 66 | 180 | 9.6 | 9.6 | 7.75 | 1.96 | 0.00 | 88 | 1011.5 |
| 20260904000003 | 66 | 180 | 9.6 | 9.6 | 7.75 | 1.96 | 0.00 | 88 | 1011.5 |
| 20260903235618 | 66 | 180 | 9.6 | 9.6 | 7.75 | 1.96 | 0.00 | 88 | 1011.5 |
| 20260903234503 | 66 | 180 | 6.1 | 9.6 | 7.75 | 1.96 | 0.00 | 88 | 1011.5 |
| 20260903233603 | 66 | 180 | 7.0 | 10.4 | 0.00 | 1.18 | 0.00 | 88 | 1011.5 |
| 20260903232703 | 66 | 180 | 9.6 | 9.6 | 0.00 | 1.18 | 0.00 | 88 | 1011.5 |
| 20260903231803 | 66 | 180 | 9.6 | 9.6 | 0.00 | 1.18 | 0.00 | 88 | 1011.5 |
| 20260903230903 | 66 | 180 | 9.6 | 9.6 | 0.00 | 1.18 | 0.00 | 88 | 1011.5 |
| 20260903230003 | 66 | 180 | 9.6 | 9.6 | 0.00 | 1.18 | 0.00 | 88 | 1011.5 |
| 20260903225403 | 66 | 180 | 9.6 | 9.6 | 0.00 | 1.18 | 0.00 | 88 | 1011.5 |
| 20260903224716 | 66 | 180 | 9.6 | 9.6 | 0.00 | 1.18 | 0.00 | 88 | 1011.5 |
| 20260903223818 | 66 | 180 | 9.6 | 9.6 | 0.00 | 1.18 | 0.00 | 88 | 1011.5 |
| 20260903222703 | 66 | 180 | 9.6 | 9.6 | 0.00 | 1.18 | 0.00 | 88 | 1011.5 |
| 20260903221803 | 66 | 180 | 9.6 | 9.6 | 0.00 | 1.18 | 0.00 | 88 | 1011.5 |
| 20260903221118 | 66 | 180 | 9.6 | 9.6 | 0.00 | 1.18 | 0.00 | 88 | 1011.5 |
| 20260903220003 | 66 | 180 | 9.6 | 9.6 | 0.00 | 1.18 | 0.00 | 88 | 1011.5 |
| 20260903215403 | 66 | 179 | 9.6 | 9.6 | 0.00 | 1.18 | 0.00 | 88 | 1011.5 |
| 20260903214503 | 66 | 180 | 9.6 | 9.6 | 0.00 | 1.18 | 0.00 | 88 | 1011.5 |
| 20260903213603 | 66 | 180 | 9.6 | 9.6 | 0.00 | 1.18 | 0.00 | 88 | 1011.5 |
| 20260903212703 | 66 | 181 | 9.6 | 9.6 | 7.75 | 1.18 | 0.00 | 88 | 1011.5 |
| 20260903211803 | 66 | 183 | 7.0 | 9.6 | 7.75 | 1.18 | 0.00 | 88 | 1011.5 |
| 20260903210903 | 67 | 180 | 7.0 | 7.0 | 7.75 | 1.18 | 0.00 | 83 | 1012.1 |
| 20260903210003 | 67 | 180 | 7.0 | 7.0 | 8.78 | 1.18 | 0.00 | 83 | 1012.1 |
| 20260903205616 | 67 | 180 | 7.0 | 7.0 | 9.80 | 1.18 | 0.00 | 83 | 1012.1 |
| 20260903204503 | 67 | 180 | 7.0 | 15.6 | 9.80 | 1.18 | 0.00 | 83 | 1012.1 |
| 20260903203603 | 67 | 182 | 6.1 | 46.9 | 9.80 | 1.18 | 0.00 | 83 | 1012.1 |
| 20260903202703 | 91 | 233 | 5.2 | 7.8 | 2.06 | 4.11 | 0.00 | 79 | 1012.2 |
| 20260903201803 | 67 | 290 | 5.2 | 7.0 | 2.06 | 4.11 | 0.00 | 83 | 1012.5 |
| 20260903201117 | 67 | 194 | 4.3 | 11.3 | 2.06 | 4.11 | 0.00 | 83 | 1012.2 |
| 20260903200003 | 72 | 360 | 7.8 | 11.3 | 1.03 | 3.08 | 0.00 | 57 | 1014.0 |
| 20260903195403 | 67 | 177 | 3.5 | 3.5 | 0.00 | 2.06 | 0.00 | 83 | 1012.2 |
| 20260903194717 | 68 | 180 | 3.5 | 3.5 | 0.00 | 2.06 | 0.00 | 82 | 1012.4 |
| 20260903193603 | 68 | 315 | 3.5 | 3.5 | 2.06 | 2.06 | 0.00 | 81 | 1012.5 |
| 20260903192703 | 68 | 137 | 4.3 | 7.0 | 2.06 | 2.06 | 0.00 | 81 | 1012.4 |
| 20260903191803 | 68 | 171 | 4.3 | 7.0 | 2.06 | 2.06 | 0.00 | 79 | 1012.2 |
| 20260903190903 | 69 | 353 | 5.2 | 8.7 | 2.06 | 2.06 | 0.00 | 73 | 1012.7 |
| 20260903190003 | 70 | 318 | 6.1 | 8.7 | 2.06 | 2.06 | 0.00 | 73 | 1012.6 |
| 20260903185618 | 69 | 311 | 6.1 | 8.7 | 2.06 | 2.06 | 0.00 | 75 | 1012.5 |
| 20260903184503 | 69 | 144 | 5.2 | 7.0 | 2.06 | 2.06 | 0.00 | 81 | 1012.9 |
| 20260903183816 | 69 | 164 | 5.2 | 7.0 | 0.00 | 0.00 | 0.00 | 82 | 1012.7 |
| 20260903182703 | 69 | 212 | 5.2 | 7.8 | 0.00 | 0.00 | 0.00 | 82 | 1012.5 |
| 20260903181803 | 70 | 199 | 5.2 | 7.0 | 0.00 | 0.00 | 0.00 | 81 | 1012.9 |
| 20260903180903 | 70 | 186 | 6.1 | 7.8 | 0.00 | 0.00 | 0.00 | 80 | 1012.6 |
| 20260903180003 | 71 | 200 | 6.1 | 7.0 | 0.00 | 0.00 | 0.00 | 78 | 1012.2 |
| 20260903175403 | 71 | 219 | 7.0 | 8.7 | 0.00 | 0.00 | 0.00 | 77 | 1012.3 |
| 20260903174503 | 72 | 181 | 6.1 | 9.6 | 0.00 | 0.00 | 0.00 | 77 | 1012.4 |
| 20260903173818 | 72 | 196 | 6.1 | 9.6 | 0.00 | 0.00 | 0.00 | 77 | 1012.7 |
| 20260903172703 | 72 | 201 | 6.1 | 7.8 | 0.00 | 0.00 | 0.00 | 75 | 1012.6 |
| 20260903171803 | 73 | 230 | 6.1 | 9.6 | 0.00 | 0.00 | 0.00 | 73 | 1012.2 |
| 20260903170903 | 73 | 182 | 5.2 | 9.6 | 0.00 | 0.00 | 0.00 | 73 | 1012.5 |
| 20260903170003 | 73 | 178 | 6.1 | 10.4 | 0.00 | 0.00 | 0.00 | 72 | 1012.5 |
| 20260903165403 | 73 | 191 | 5.2 | 7.0 | 0.00 | 0.00 | 0.00 | 73 | 1012.5 |
| 20260903164503 | 73 | 173 | 5.2 | 9.6 | 0.00 | 0.00 | 0.00 | 72 | 1012.6 |
| 20260903163603 | 76 | 180 | 5.2 | 5.2 | 0.00 | 0.00 | 0.00 | 66 | 1013.1 |
| 20260903162703 | 76 | 180 | 5.2 | 5.2 | 0.00 | 0.00 | 0.00 | 66 | 1013.1 |
| 20260903161803 | 76 | 180 | 5.2 | 5.2 | 0.00 | 0.00 | 0.00 | 66 | 1013.1 |
| 20260903160903 | 76 | 192 | 5.2 | 6.1 | 0.00 | 0.00 | 0.00 | 66 | 1013.1 |
| 20260903160003 | 77 | 275 | 5.2 | 7.0 | 0.00 | 0.00 | 0.00 | 66 | 1013.0 |
| 20260903155617 | 78 | 312 | 6.1 | 7.0 | 0.00 | 0.00 | 0.00 | 66 | 1012.8 |
| 20260903154503 | 80 | 315 | 7.0 | 7.0 | 0.00 | 0.00 | 0.00 | 55 | 1013.1 |
| 20260903153603 | 80 | 275 | 7.8 | 8.7 | 0.00 | 0.00 | 0.00 | 55 | 1013.1 |
| 20260903152703 | 79 | 283 | 7.0 | 8.7 | 0.00 | 0.00 | 0.00 | 55 | 1013.1 |
| 20260903152018 | 79 | 173 | 5.2 | 7.8 | 0.00 | 0.00 | 0.00 | 55 | 1013.0 |
| 20260903151117 | 78 | 185 | 4.3 | 5.2 | 0.00 | 0.00 | 0.00 | 59 | 1013.4 |
| 20260903150003 | 78 | 264 | 6.1 | 9.6 | 0.00 | 0.00 | 0.00 | 56 | 1013.4 |